全球星 M087星 (GLOBALSTAR M087)

导读

GLOBALSTAR M087是美国于2022年6月19日发射的全球星系统卫星,隶属于全球星低轨卫星通信星座。该卫星旨在补充和增强全球星卫星网络的通信覆盖能力,为全球范围提供语音、数据等移动通信服务,尤其支持偏远地区、海上等地面网络覆盖盲区的通信连接,进一步巩固了美国低轨通信卫星系统的服务稳定性与覆盖广度。

Basic Information
目录编号:
52888
目录名称:
GLOBALSTAR M087
国际标识:
2022-064A
轨道中心:
EARTH
卫星名称:
全球星 M087星
卫星全名:
全球星 M087星 (GLOBALSTAR M087)
卫星状态:
在轨 (已飞行1545 天)
发射日期:
2022-06-19 UTC
国别 :
美国 (US)
星等 :
--
This satellite is enrolled in the Space Conjunction Data Service (SCDS) and the current flight risk assessment level is: No High Risk
Orbit Information
数据来源 国际轨道数据 AOE轨道数据
星历时间 2026-09-10T07:14:55+0800
1天前
查看轨道信息
2026-09-10T23:00:00+0800
18小时前
查看轨道信息
半长轴 7791.756km 7791.755km
偏心率 0.0000685 0.0000698
轨道倾角 51.999° 51.999°
近地点辐角 87.675° 79.117°
升交点赤经 164.341° 162.344°
平近点角 272.420° 24.796°
近地点 1413.085km 1413.074km
远地点 1414.153km 1414.162km
周期 114.081分钟 114.081分钟
每日圈数 12.622627 12.622631
Detailed Information
固有亮度:
5
最大亮度:
7.2
平衡模式:
三轴稳定
覆盖范围:
全球
运营商:
全球星公司
运营商所在国:
美国
使用方式:
暂无
Satellite Introduction
全球星星座由48颗卫星加8颗备份星组成。这些卫星分布在8个倾角为52度的圆形轨道平面上,每个轨道平面6颗卫星,另有1 颗备用星。轨道高度约为1414km,传输时延和处理时延小于300ms,整个系统的覆盖区为南北纬70度以内的地区。该卫星仍在工作。
2D Orbit Map
3D Orbit Map
Orbit Altitude Analysis Chart
Orbit Inclination Analysis Chart
Orbit Comprehensive Analysis Chart
View Comprehensive Chart
Conjunction Data List
Event ID Objects TCA Miss Dist (km) Collision Risk Probability Collision Risk Index (CRI) Action
CDM_260911-211202-203805-288827
2026-09-11T
21:12:30+0000
1.841 km
极远距离
2.072899E-6 低风险 0.41
Miss Distance Evolution Trend with All Objects
Collision Probability Evolution Trend with All Objects